Wind_Speed
36 35 35 34 34 34 33 33 32 32 32 32 31 31 31 31 30 30 30 30 30 30 30 30 30 30 30 30 30 30 30 30 30 31 31 32 33 33 33 34 34 34 34
37 37 37 36 36 35 35 34 34 34 34 33 33 33 33 33 32 32 32 31 31 31 32 32 32 32 32 31 32 32 32 32 32 33 33 33 34 34 35 35 35 36 35
38 38 38 37 37 37 36 35 35 35 35 35 35 35 34 34 34 34 34 33 34 34 34 34 34 34 35 34 34 35 35 35 34 35 35 35 36 36 36 37 37 37 38
40 40 39 38 38 37 37 37 37 37 37 36 36 36 36 36 36 36 36 36 36 36 35 36 36 37 37 37 37 37 37 37 37 37 37 37 38 38 39 39 39 39 39
41 41 40 40 40 39 39 39 39 39 39 38 37 37 38 38 38 38 38 38 38 37 37 38 38 39 39 39 39 40 40 40 40 40 40 40 40 40 40 40 40 40 40
41 42 41 42 42 42 41 41 40 40 40 40 40 40 40 40 40 39 39 40 40 40 39 40 40 41 41 41 41 42 42 42 43 43 43 43 43 43 43 43 42 42 42
43 42 42 43 43 43 42 42 42 42 42 42 42 42 42 42 42 41 41 42 42 42 41 41 42 42 43 43 44 44 44 44 44 45 45 45 45 45 45 45 45 44 43
43 42 42 43 43 44 44 44 44 43 43 43 43 43 43 43 43 42 42 43 43 43 43 43 43 44 45 45 45 45 45 46 46 46 46 46 47 46 46 46 46 45 45
44 43 44 44 45 46 46 46 46 45 44 43 43 43 43 43 43 43 43 43 43 44 45 45 45 46 46 46 46 46 47 48 47 47 47 47 48 48 48 47 47 47 46
45 45 46 47 47 46 47 47 47 47 46 44 43 43 44 43 44 44 44 45 45 46 46 46 46 46 47 47 47 48 49 49 49 49 49 49 49 49 50 49 49 48 48
45 45 46 46 47 47 48 48 47 47 48 47 46 46 45 46 46 46 46 46 47 48 47 47 48 48 48 49 49 49 50 50 50 51 50 51 51 51 51 50 50 49 49
45 44 44 46 46 48 48 48 47 48 49 48 48 47 47 48 48 48 48 48 48 49 50 50 49 48 48 48 49 50 51 52 52 53 53 53 52 52 51 51 51 50 49
45 45 45 46 47 48 49 49 48 48 49 49 48 48 48 49 49 50 50 50 50 50 50 50 50 50 50 50 50 50 51 52 53 53 53 53 53 52 52 51 51 49 48
45 45 46 47 48 49 50 50 50 49 49 49 49 49 49 49 50 51 51 52 52 52 53 51 51 51 51 51 50 51 51 51 52 52 53 53 52 52 52 51 50 49 48
44 45 45 47 48 50 50 51 52 51 51 51 50 51 50 50 51 51 51 52 52 53 53 52 51 51 51 51 51 51 52 52 52 52 52 52 52 52 51 50 49 49 49
44 45 46 47 48 48 49 50 52 52 52 52 52 51 51 52 53 52 52 52 52 52 52 51 51 50 50 50 50 51 52 52 52 52 52 52 52 51 51 50 50 50 50
44 45 47 48 48 49 50 51 51 52 52 53 53 53 53 53 53 53 52 51 51 51 51 50 49 49 49 49 49 50 51 52 51 52 52 52 51 51 50 51 50 50 50
45 46 47 48 49 49 49 50 51 51 52 52 52 52 52 52 52 53 52 51 51 50 50 49 49 49 48 49 49 50 50 50 50 51 51 51 51 50 49 50 50 50 50
46 46 46 46 48 49 49 48 49 49 51 51 51 51 52 52 52 51 51 51 51 51 50 49 49 48 48 49 50 50 50 50 50 50 50 50 49 49 49 49 48 48 49
45 46 46 46 47 48 48 48 48 48 48 48 49 49 50 50 50 50 50 50 50 51 50 50 49 49 49 48 49 49 49 49 49 49 49 48 47 47 47 47 47 47 47
44 44 45 45 46 47 47 47 48 47 47 47 48 48 48 49 49 50 50 50 50 50 50 50 50 49 48 48 49 48 48 47 47 47 46 46 46 46 45 46 46 46 46
41 43 44 44 43 43 43 43 44 45 45 46 46 46 46 47 47 48 49 48 48 48 48 49 49 48 48 48 48 48 48 47 47 46 46 46 46 45 45 45 45 44 44
38 39 39 39 40 40 39 39 40 41 42 42 43 44 44 44 45 45 46 46 46 46 47 47 47 47 48 47 48 48 48 48 47 46 46 44 44 45 45 44 44 44 43
34 34 34 34 35 35 36 36 37 37 38 39 40 41 42 42 42 42 43 43 44 44 44 45 46 46 45 45 45 47 47 46 46 45 44 44 44 44 43 43 43 43 42
30 30 30 30 31 31 31 32 33 34 34 35 36 37 37 38 39 41 41 41 41 40 41 42 42 42 42 42 43 44 43 43 43 42 42 43 42 42 42 41 41 40 40
27 26 27 27 26 27 28 29 30 31 32 33 33 34 34 34 35 36 37 37 37 37 37 38 38 39 39 38 39 39 39 39 39 39 39 39 39 39 38 38 38 37 37
Wind_Direction
249 250 251 251 252 253 253 254 254 254 254 255 256 256 256 257 256 258 259 260 259 260 261 261 262 264 265 267 269 270 271 273 273 274 276 278 280 281 282 282 283 284 285
249 250 251 251 252 253 253 253 254 255 255 256 256 257 257 256 257 258 259 260 262 262 261 261 262 264 265 267 269 270 271 272 273 275 276 278 280 281 281 281 282 283 284
249 250 251 251 251 253 253 254 255 255 256 257 257 258 257 258 258 259 260 261 262 263 262 262 262 264 265 266 267 269 271 272 273 275 277 279 280 281 282 283 283 283 284
248 250 252 252 252 253 254 255 255 257 258 258 258 258 257 258 259 260 261 261 262 263 263 264 264 265 266 267 267 268 269 270 271 274 277 279 280 281 281 282 283 283 284
249 250 251 252 252 253 255 255 256 258 259 258 258 259 259 259 260 260 261 262 262 262 263 265 266 267 267 268 268 269 270 270 271 274 276 278 279 280 281 282 282 283 284
250 251 252 253 254 254 256 257 257 257 258 258 259 259 259 260 261 261 262 262 262 262 263 264 266 267 267 268 269 269 270 271 272 274 275 277 278 279 279 281 282 283 284
249 251 252 253 254 255 257 258 258 258 258 259 259 259 259 260 261 262 262 263 264 264 264 265 266 267 267 268 268 269 270 271 273 275 276 277 277 278 279 280 281 282 284
252 252 253 254 255 256 257 257 258 259 258 259 259 260 260 261 261 261 262 263 264 265 265 266 266 266 267 268 268 270 270 271 273 274 276 277 278 278 278 279 280 281 283
254 254 254 255 257 257 257 257 257 258 259 259 260 260 261 261 261 261 262 263 264 265 265 266 266 267 268 268 269 270 270 271 273 275 276 277 277 277 278 279 279 280 282
255 255 255 255 257 256 256 257 257 258 259 260 260 261 262 262 261 261 262 263 264 265 266 267 268 268 269 269 269 271 271 272 273 275 276 276 277 277 278 279 280 281 282
255 256 256 256 257 257 257 257 258 259 260 260 260 261 262 262 262 262 263 264 266 267 267 268 269 270 270 269 270 271 272 272 273 275 276 276 277 277 278 279 280 280 281
257 258 258 257 257 257 256 256 258 259 260 260 261 261 262 262 263 265 265 265 266 267 269 269 269 270 270 270 271 271 272 272 273 274 276 276 277 277 278 279 279 280 280
259 259 260 260 259 257 257 257 258 259 260 260 261 261 262 263 264 265 266 267 268 268 270 270 270 270 271 271 271 272 273 273 273 274 276 276 277 277 277 278 278 279 278
261 261 261 261 261 261 259 259 259 260 260 260 261 261 261 262 264 265 267 268 268 269 270 270 271 271 271 272 272 273 273 274 274 275 276 276 277 277 277 278 278 278 278
263 263 264 264 263 263 261 260 260 260 260 260 261 262 262 263 264 266 267 268 269 270 270 270 271 272 272 273 273 274 274 275 275 276 276 277 276 276 277 277 277 278 279
264 264 264 264 264 263 262 262 262 262 261 261 262 263 263 264 265 266 268 268 269 270 270 270 271 272 273 274 274 274 275 275 276 276 276 277 276 275 275 276 277 278 279
265 265 265 264 264 264 264 263 263 262 262 262 263 264 265 266 266 267 267 268 269 270 270 270 271 271 272 273 274 274 275 275 276 276 276 277 276 275 275 275 276 277 278
266 266 266 266 266 266 265 264 263 262 261 262 263 264 265 265 266 266 266 267 268 270 270 270 270 271 272 273 274 275 275 276 276 276 276 276 276 275 275 276 276 277 278
268 268 268 268 267 266 266 265 263 263 262 262 263 264 265 265 265 266 267 267 268 269 270 270 270 271 272 274 274 275 276 276 277 277 276 276 275 275 275 275 276 277 278
269 269 269 268 268 267 266 264 263 262 262 262 264 264 264 264 265 266 267 267 267 268 268 270 271 272 273 273 274 275 276 276 277 277 277 275 275 274 275 275 276 277 278
270 270 269 269 268 267 266 264 263 262 262 263 263 264 264 264 264 265 267 268 268 268 269 270 271 271 272 273 274 274 275 275 276 277 276 275 275 275 275 276 277 278 279
272 271 270 269 269 267 267 265 264 263 263 263 263 263 264 265 265 265 266 266 267 268 269 270 270 271 271 273 273 273 274 275 276 276 275 275 275 275 276 277 278 279 279
273 272 271 269 268 267 267 265 265 264 263 263 264 264 264 264 265 266 265 265 266 267 269 271 271 272 273 273 273 274 275 276 276 276 276 275 275 276 277 277 278 278 279
275 273 272 270 269 268 268 267 266 265 264 263 264 264 265 265 266 266 266 266 267 267 269 271 271 272 273 274 274 275 276 275 275 275 275 275 276 277 277 277 277 277 278
277 275 273 272 271 270 269 267 266 265 265 265 265 265 265 266 267 267 267 267 267 268 269 271 272 273 274 274 275 276 274 274 275 275 275 275 275 275 276 277 277 277 278
277 275 275 273 272 271 269 268 269 268 267 266 265 265 265 266 267 268 267 267 268 268 270 271 271 271 272 273 274 275 275 275 275 275 275 274 274 274 275 275 275 276 277
Height
5784 5786 5787 5788 5789 5790 5792 5793 5794 5794 5795 5796 5797 5797 5798 5799 5799 5800 5800 5801 5801 5801 5801 5801 5801 5801 5801 5801 5801 5801 5800 5800 5799 5798 5797 5796 5795 5794 5793 5791 5790 5788 5786
5776 5778 5779 5781 5782 5783 5784 5786 5787 5787 5788 5789 5790 5790 5791 5792 5792 5793 5793 5794 5794 5794 5794 5794 5794 5795 5795 5795 5794 5794 5793 5793 5792 5791 5790 5789 5788 5786 5785 5783 5782 5780 5778
5768 5769 5771 5773 5774 5776 5777 5778 5779 5780 5781 5782 5782 5783 5784 5784 5785 5785 5786 5786 5787 5787 5787 5787 5787 5787 5787 5787 5787 5786 5786 5785 5784 5783 5782 5781 5780 5778 5777 5775 5774 5772 5770
5759 5761 5763 5764 5766 5767 5769 5770 5771 5772 5773 5774 5775 5775 5776 5776 5777 5777 5778 5778 5779 5779 5780 5780 5780 5780 5779 5779 5779 5778 5778 5777 5776 5775 5774 5773 5771 5770 5768 5766 5765 5763 5761
5750 5752 5754 5756 5757 5759 5760 5761 5762 5764 5764 5765 5766 5767 5767 5768 5769 5769 5770 5770 5770 5771 5771 5771 5771 5771 5771 5770 5770 5769 5769 5768 5767 5766 5765 5764 5762 5761 5759 5757 5755 5753 5751
5740 5743 5745 5746 5748 5750 5751 5752 5753 5754 5755 5756 5757 5758 5759 5759 5760 5760 5761 5761 5762 5762 5762 5762 5762 5762 5762 5761 5761 5760 5760 5759 5758 5757 5756 5754 5753 5751 5750 5748 5746 5744 5742
5731 5733 5735 5737 5738 5740 5741 5742 5743 5744 5745 5746 5747 5748 5749 5750 5750 5751 5751 5752 5752 5752 5752 5752 5752 5752 5752 5752 5751 5750 5750 5749 5748 5747 5745 5744 5743 5741 5740 5738 5736 5734 5732
5721 5723 5725 5727 5728 5730 5731 5732 5733 5734 5735 5736 5737 5737 5739 5740 5740 5741 5742 5742 5742 5742 5742 5742 5742 5742 5742 5741 5741 5740 5739 5738 5737 5736 5734 5733 5732 5730 5729 5727 5725 5723 5721
5711 5713 5714 5716 5718 5719 5721 5722 5723 5724 5725 5726 5726 5727 5728 5730 5730 5732 5732 5732 5732 5732 5732 5732 5731 5731 5731 5730 5730 5729 5728 5727 5726 5725 5723 5722 5720 5719 5718 5716 5714 5712 5710
5700 5702 5704 5705 5707 5708 5710 5711 5712 5713 5714 5714 5716 5716 5718 5718 5719 5721 5721 5721 5721 5721 5721 5721 5720 5720 5719 5719 5718 5717 5717 5715 5714 5713 5711 5710 5709 5707 5706 5704 5702 5700 5698
5690 5691 5693 5694 5696 5697 5698 5700 5701 5702 5702 5703 5705 5706 5706 5707 5708 5709 5710 5710 5709 5709 5709 5709 5709 5708 5708 5707 5706 5705 5704 5703 5702 5701 5699 5698 5696 5695 5693 5692 5690 5688 5686
5678 5679 5681 5682 5684 5685 5687 5688 5689 5690 5691 5692 5693 5694 5694 5695 5696 5697 5697 5698 5698 5698 5697 5697 5696 5696 5695 5694 5694 5693 5692 5691 5690 5688 5687 5685 5684 5682 5681 5679 5677 5676 5674
5667 5668 5669 5670 5672 5673 5674 5675 5676 5678 5679 5680 5681 5682 5683 5683 5684 5684 5685 5685 5685 5685 5685 5684 5683 5682 5682 5681 5680 5679 5678 5677 5676 5675 5674 5672 5671 5669 5668 5666 5664 5663 5661
5655 5656 5657 5658 5659 5660 5661 5663 5664 5665 5666 5667 5669 5669 5670 5671 5671 5672 5672 5672 5672 5672 5671 5672 5670 5669 5668 5667 5666 5665 5665 5664 5663 5661 5660 5659 5657 5656 5654 5653 5651 5650 5648
5644 5644 5645 5645 5646 5647 5649 5650 5651 5652 5653 5654 5656 5656 5657 5658 5658 5658 5659 5659 5659 5659 5659 5658 5657 5656 5654 5653 5653 5652 5651 5650 5649 5648 5646 5645 5643 5642 5641 5639 5638 5637 5635
5632 5632 5633 5633 5633 5634 5635 5636 5638 5639 5640 5641 5642 5643 5644 5644 5645 5645 5645 5645 5645 5645 5645 5646 5644 5643 5641 5640 5639 5638 5637 5636 5635 5634 5632 5631 5629 5628 5627 5626 5625 5624 5622
5619 5620 5620 5620 5620 5621 5621 5622 5623 5625 5626 5627 5628 5629 5630 5630 5631 5631 5631 5632 5632 5631 5632 5632 5631 5630 5628 5627 5626 5625 5624 5622 5621 5620 5618 5617 5616 5615 5614 5613 5611 5610 5608
5607 5607 5606 5607 5607 5607 5607 5608 5609 5610 5612 5613 5614 5615 5616 5616 5617 5617 5617 5618 5618 5618 5618 5618 5617 5616 5615 5614 5613 5612 5610 5609 5608 5606 5605 5603 5602 5601 5600 5599 5598 5596 5595
5593 5593 5592 5592 5592 5592 5593 5594 5595 5596 5597 5599 5600 5601 5602 5602 5603 5603 5604 5604 5604 5604 5604 5604 5604 5603 5602 5601 5599 5598 5597 5595 5594 5593 5591 5589 5588 5587 5586 5585 5584 5583 5581
5579 5579 5579 5578 5578 5578 5579 5580 5581 5582 5584 5585 5586 5587 5588 5589 5590 5590 5590 5590 5590 5590 5590 5590 5590 5589 5588 5587 5586 5585 5584 5582 5581 5579 5577 5576 5575 5574 5573 5572 5571 5569 5567
5567 5566 5566 5565 5564 5564 5565 5566 5567 5569 5570 5571 5572 5573 5574 5575 5576 5576 5576 5577 5577 5577 5577 5577 5576 5576 5575 5574 5573 5572 5570 5569 5567 5566 5564 5563 5562 5561 5560 5558 5557 5555 5553
5554 5554 5553 5552 5552 5552 5552 5553 5554 5555 5556 5558 5559 5560 5561 5561 5562 5563 5563 5564 5564 5564 5563 5563 5563 5563 5562 5560 5559 5558 5557 5556 5556 5554 5552 5551 5549 5548 5547 5545 5544 5542 5540
5543 5542 5541 5541 5540 5541 5541 5541 5542 5543 5544 5545 5546 5547 5548 5549 5549 5550 5550 5550 5551 5550 5550 5550 5550 5549 5549 5548 5546 5545 5544 5543 5542 5541 5539 5538 5537 5535 5534 5532 5531 5529 5528
5533 5532 5531 5530 5530 5530 5530 5531 5531 5532 5532 5533 5534 5535 5536 5536 5537 5537 5538 5538 5538 5538 5538 5538 5538 5537 5535 5534 5533 5532 5531 5530 5529 5528 5526 5526 5525 5523 5522 5520 5518 5517 5515
5524 5523 5522 5521 5521 5520 5520 5521 5521 5522 5522 5523 5524 5524 5524 5525 5526 5526 5526 5526 5527 5526 5525 5525 5525 5524 5523 5522 5520 5519 5519 5518 5517 5516 5514 5513 5512 5511 5510 5508 5507 5505 5504
5516 5514 5513 5512 5512 5512 5512 5512 5512 5513 5513 5514 5514 5514 5515 5515 5515 5515 5515 5515 5515 5515 5515 5514 5514 5513 5512 5510 5509 5508 5507 5506 5505 5505 5503 5501 5500 5499 5499 5498 5496 5494 5493